Home > Weather > Columbus > Past weeks

Flag for USA Past Weather in Columbus, Georgia, USA — Yesterday and Last 2 Weeks

Now
77 °F

Clear.


Feels Like: 79 °F
Forecast: 73 / 94 °F
Wind: No wind

Location: Columbus Metropolitan Airport

Current Time: Jul 29, 2016 at 8:18:29 AM

Latest Report: Jul 29, 2016 at 7:51 AM


Visibility: 10 mi

Pressure: 30.02 "Hg

Humidity: 77%

Dew Point: 69 °F

Location of ColumbusLocation

Past Weather in Columbus — Graph

°F

Columbus Temperature Yesterday

Maximum temperature yesterday: 95 °F (at 3:51 PM)
Minimum temperature yesterday: 73 °F (at 6:51 AM)
Average temperature yesterday: 84 °F

High & Low Weather Summary for the Past Weeks

 TemperatureHumidityPressure
High98 °F (Jul 20, 5:51 PM)97% (Jul 17, 1:51 AM)30.27 "Hg (Jul 17, 1:51 AM)
Low71 °F (Jul 22, 5:51 AM)32% (Jul 24, 4:51 PM)29.93 "Hg (Jul 23, 6:51 PM)
Average83 °F68%30.06 "Hg
* Reported Jul 14 6:51 AM — Jul 29 6:51 AM, Columbus, Weather by CustomWeather, © 2016

Note: Actual official high and low records may vary slightly from our data, if they occured in-between our weather recording intervals... More about our weather records

Advertising

Columbus Weather History for the Previous 24 Hours

Scroll right to see more
 ConditionsComfort  
Time TempWeatherWind HumidityBarometerVisibility
6:51 AM
Fri, Jul 29
76 °FClear.3 mph80%30.01 "Hg10 mi
5:51 AM77 °FClear.5 mph77%30.00 "Hg10 mi
4:51 AM77 °FPassing clouds.5 mph77%30.00 "Hg10 mi
3:51 AM78 °FPassing clouds.7 mph71%30.01 "Hg10 mi
2:51 AM78 °FPassing clouds.6 mph71%30.00 "Hg10 mi
1:51 AM79 °FClear.5 mph69%30.00 "Hg10 mi
12:51 AM81 °FPassing clouds.5 mph65%30.00 "Hg10 mi
11:51 PM
Thu, Jul 28
82 °FClear.5 mph63%29.99 "Hg10 mi
10:51 PM84 °FPassing clouds.8 mph59%30.00 "Hg10 mi
9:51 PM87 °FClear.7 mph46%29.98 "Hg10 mi
8:51 PM89 °FPassing clouds.7 mph41%29.95 "Hg10 mi
7:51 PM91 °FSunny.12 mph38%29.95 "Hg10 mi
6:51 PM93 °FSunny.10 mph36%29.94 "Hg10 mi
5:51 PM93 °FPartly sunny.14 mph34%29.94 "Hg10 mi
4:51 PM93 °FPartly sunny.15 mph36%29.95 "Hg10 mi
3:51 PM95 °FScattered clouds.13 mph37%29.96 "Hg10 mi
2:51 PM91 °FPartly sunny.12 mph42%29.99 "Hg10 mi
1:51 PM90 °FPartly sunny.14 mph45%30.01 "Hg10 mi
12:51 PM90 °FPassing clouds.15 mph45%30.03 "Hg10 mi
11:51 AM87 °FPassing clouds.10 mph51%30.03 "Hg10 mi
10:51 AM85 °FPassing clouds.14 mph55%30.04 "Hg10 mi
9:51 AM82 °FSunny.12 mph65%30.04 "Hg10 mi
8:51 AM78 °FSunny.6 mph76%30.04 "Hg10 mi
Weather by CustomWeather, © 2016

See weather overviewHow to use our weather pages